Tracking 25195 objects as of 20-Jan-2022
HD Live streaming from Space Station
objects crossing your sky now

STARLINK-3285

Track STARLINK-3285 now!
10-day predictions
STARLINK-3285 is classified as:


NORAD ID: 50181
Int'l Code: 2021-125AB
Perigee: 356.2 km
Apogee: 357.7 km
Inclination: 53.2 °
Period: 91.5 minutes
Semi major axis: 6727 km
RCS: Unknown
Launch date: December 18, 2021
Source: United States (US)
Launch site: AIR FORCE WESTERN TEST RANGE (AFWTR)
aabbcc
Your satellite tracking list
Your tracking list is empty




NASA's NSSDC Master Catalog

Two Line Element Set (TLE):
1 50181U 21125AB  22020.58334491 -.00047689  00000-0 -33743-3 0  9998
2 50181  53.2160 201.9815 0001113  70.1676 240.7805 15.73191184  3710
Source of the keplerian elements: AFSPC